Regional Weather Roundup
Issued by NWS

Home | Current Version | Previous Version | Text Only | Print | Product List | Glossary Off
Versions: 1 2 3 4 5 6 7 8 9 10 11 12 13 14 15 16 17 18 19 20 21 22 23 24 25 26 27 28 29 30 31 32 33 34 35 36 37 38 39 40 41 42 43 44 45 46 47 48 49 50

978
ASUS43 KLSX 151907
RWRMO

WEATHER SUMMARY FOR MISSOURI
NATIONAL WEATHER SERVICE SPRINGFIELD MO
100 PM CST FRI DEC 15 2017

NOTE: "FAIR" INDICATES FEW OR NO CLOUDS BELOW 12,000 FEET WITH NO
       SIGNIFICANT WEATHER AND/OR OBSTRUCTIONS TO VISIBILITY.
       CURRENT SKY AND/OR WEATHER CONDITIONS ARE NOT AVAILABLE FOR
       CHILLICOTHE AND FARMINGTON.

MOZ001>031-035>038-043-044-053-054-152000-
...NORTHERN AND WESTERN MISSOURI...

CITY           SKY/WX    TMP DP  RH WIND       PRES   REMARKS
KANSAS CTY INT PTSUNNY   43  21  41 SW14G23   30.06F
KANSAS C DTWN  SUNNY     45  22  40 SW14      30.07F
LEE`S SUMMIT   SUNNY     43  22  43 W14       30.08F
ST JOSEPH      SUNNY     45  22  40 W17       30.06F
CHILLICOTHE      N/A     45  20  36 VRB7G20   30.05F
KIRKSVILLE     MOSUNNY   42  23  46 W12G24    30.01F

$$
MOZ066>068-077>081-088>096-101>105-152000-
...SOUTHWEST MISSOURI...

CITY           SKY/WX    TMP DP  RH WIND       PRES   REMARKS
SPRINGFIELD    CLOUDY    42  28  57 W13       30.13F
JOPLIN         MOSUNNY   45  26  47 W18G25    30.17F
BRANSON        MOSUNNY   45  27  49 NW12      30.15F

$$
MOZ032>034-039>042-045>050-055>058-069>072-152000-
...CENTRAL MISSOURI...

CITY           SKY/WX    TMP DP  RH WIND       PRES   REMARKS
COLUMBIA       SUNNY     44  20  38 W14       30.08F
JEFFERSON CITY SUNNY     42  21  43 W17       30.10F
ROLLA          CLOUDY    40  24  53 W13G23    30.09F
SEDALIA        MOSUNNY   44  24  45 W15       30.10F
WHITEMAN AFB   MOSUNNY   43  20  40 W13       30.05F
WARRENSBURG    SUNNY     43  21  42 SW7       30.10F
OSAGE BEACH    CLOUDY    41  26  55 W8        30.11F

$$
MOZ051-052-059>065-152000-
...EAST CENTRAL MISSOURI...

CITY           SKY/WX    TMP DP  RH WIND       PRES   REMARKS
ST LOUIS INTL  MOSUNNY   44  22  41 W14       30.07F
SPIRIT OF STL  MOSUNNY   44  24  45 W15       30.06F
ST CHARLES     SUNNY     43  20  39 W13       30.06F

$$
MOZ072>076-082>087-097>100-106>115-152000-
...SOUTH CENTRAL AND SOUTHEAST MISSOURI...

CITY           SKY/WX    TMP DP  RH WIND       PRES   REMARKS
CAPE GIRARDEAU SUNNY     45  25  45 W9        30.10F
FARMINGTON     CLOUDY    47  26  44 W14G20    30.07F
POPLAR BLUFF   SUNNY     47  28  47 SW10      30.12F HAZE
WEST PLAINS    SUNNY     47  25  42 W15G24    30.11F

$$



USA.gov is the U.S. government's official web portal to all federal, state and local government web resources and services.